Location: Helensbirgh
(56.0153°N, 4.7348°W)
Time: 03:45:55
(UTC+00:00)

Envisat - Pass Details

Date: 23 October 2019
Orbit: 764 x 766 km, 98.1° (Epoch: 18 November)

Event Time Altitude Azimuth Distance (km) Brightness Sun altitude
Rises 06:58:55 0° 24° (NNE) 3,247 6.5 -10.0°
Reaches altitude 10° 07:01:58 10° 43° (NE) 2,315 6.0 -9.6°
Maximum altitude 07:05:26 18° 86° (E) 1,806 6.2 -9.1°
Drops below altitude 10° 07:08:54 10° 129° (SE) 2,302 6.5 -8.6°
Sets 07:11:55 0° 148° (SSE) 3,223 6.9 -8.2°
